• In India
  • List of Countries
  • For 7 days
  • Water Temperature
  • Satellite Maps
  • Weather Map
  • Weather Widgets
  • user-avatar
    Login

    Hourly Weather Owieczki

    Today, 19 February, Tuesday

    Time Temperature Precipitation Wind Pressure Humidity
    00:00 +4°C° 0 mm 3 mps 754 mmHg 66%
    01:00 +4°C° 0 mm 3 mps 754 mmHg 67%
    02:00 +4°C° 0 mm 2 mps 753 mmHg 67%
    03:00 +4°C° 0 mm 2 mps 753 mmHg 68%
    04:00 +4°C° 0 mm 2 mps 753 mmHg 69%
    05:00 +3°C° 0 mm 2 mps 753 mmHg 70%
    06:00 +3°C° 0 mm 2 mps 752 mmHg 71%
    07:00 +3°C° 0 mm 2 mps 752 mmHg 72%
    08:00 +4°C° 0 mm 3 mps 752 mmHg 66%
    09:00 +7°C° 0 mm 3 mps 752 mmHg 61%
    10:00 +7°C° 0 mm 4 mps 752 mmHg 56%
    11:00 +10°C° 0 mm 4 mps 752 mmHg 54%
    12:00 +10°C° 0 mm 5 mps 752 mmHg 53%
    13:00 +12°C° 0 mm 5 mps 752 mmHg 51%
    14:00 +12°C° 0 mm 5 mps 752 mmHg 55%
    15:00 +12°C° 0 mm 4 mps 751 mmHg 58%
    16:00 +11°C° 0 mm 4 mps 751 mmHg 62%
    17:00 +10°C° 0.2 mm 4 mps 752 mmHg 69%
    18:00 +8°C° 0.2 mm 4 mps 752 mmHg 75%
    19:00 +7°C° 0.2 mm 4 mps 752 mmHg 82%
    20:00 +7°C° 0.1 mm 4 mps 752 mmHg 83%
    21:00 +6°C° 0.1 mm 4 mps 752 mmHg 85%
    22:00 +5°C° 0.1 mm 5 mps 752 mmHg 86%
    23:00 +5°C° 0 mm 5 mps 753 mmHg 85%

    Tomorrow, 20 February, Wednesday

    Time Temperature Precipitation Wind Pressure Humidity
    00:00 +5°C° 0 mm 5 mps 753 mmHg 84%
    01:00 +3°C° 0 mm 5 mps 753 mmHg 83%
    02:00 +3°C° 0 mm 5 mps 753 mmHg 83%
    03:00 +3°C° 0 mm 5 mps 753 mmHg 84%
    04:00 +3°C° 0 mm 5 mps 753 mmHg 84%
    05:00 +3°C° 0.1 mm 5 mps 754 mmHg 84%
    06:00 +3°C° 0.1 mm 5 mps 754 mmHg 84%
    07:00 +3°C° 0.1 mm 5 mps 754 mmHg 83%
    08:00 +3°C° 0 mm 6 mps 755 mmHg 80%
    09:00 +4°C° 0 mm 6 mps 755 mmHg 76%
    10:00 +5°C° 0 mm 7 mps 756 mmHg 73%
    11:00 +5°C° 0 mm 6 mps 756 mmHg 71%
    12:00 +5°C° 0 mm 6 mps 756 mmHg 69%
    13:00 +7°C° 0 mm 6 mps 756 mmHg 67%
    14:00 +6°C° 0 mm 5 mps 756 mmHg 68%
    15:00 +6°C° 0 mm 4 mps 756 mmHg 68%
    16:00 +6°C° 0 mm 4 mps 756 mmHg 69%
    17:00 +7°C° 0 mm 3 mps 757 mmHg 72%
    18:00 +7°C° 0 mm 3 mps 757 mmHg 75%
    19:00 +5°C° 0 mm 3 mps 757 mmHg 78%
    20:00 +5°C° 0 mm 3 mps 758 mmHg 79%
    21:00 +5°C° 0 mm 3 mps 758 mmHg 80%
    22:00 +5°C° 0 mm 3 mps 758 mmHg 80%
    23:00 +5°C° 0 mm 3 mps 758 mmHg 80%

    Day after tomorrow, 21 February, Thursday

    Time Temperature Precipitation Wind Pressure Humidity
    00:00 +4°C° 0 mm 3 mps 758 mmHg 79%
    01:00 +4°C° 0 mm 3 mps 758 mmHg 78%
    02:00 +4°C° 0.1 mm 3 mps 758 mmHg 78%
    03:00 +4°C° 0.1 mm 3 mps 758 mmHg 77%
    04:00 +4°C° 0.1 mm 4 mps 758 mmHg 76%
    05:00 +4°C° 0.2 mm 4 mps 758 mmHg 78%
    06:00 +4°C° 0.2 mm 4 mps 758 mmHg 79%
    07:00 +5°C° 0.2 mm 4 mps 757 mmHg 81%
    08:00 +5°C° 0.3 mm 5 mps 757 mmHg 79%
    09:00 +6°C° 0.3 mm 5 mps 757 mmHg 78%
    10:00 +6°C° 0.3 mm 5 mps 757 mmHg 77%
    11:00 +7°C° 0.3 mm 5 mps 757 mmHg 75%
    12:00 +7°C° 0.3 mm 5 mps 757 mmHg 72%
    13:00 +8°C° 0.3 mm 6 mps 757 mmHg 70%
    14:00 +7°C° 0.4 mm 6 mps 757 mmHg 73%
    15:00 +7°C° 0.4 mm 6 mps 756 mmHg 77%
    16:00 +7°C° 0.4 mm 6 mps 756 mmHg 80%
    17:00 +7°C° 0.6 mm 6 mps 757 mmHg 83%
    18:00 +7°C° 0.6 mm 6 mps 757 mmHg 86%
    19:00 +7°C° 0.6 mm 6 mps 757 mmHg 88%
    20:00 +7°C° 0.1 mm 6 mps 757 mmHg 89%
    21:00 +7°C° 0.1 mm 6 mps 757 mmHg 89%
    22:00 +7°C° 0.1 mm 6 mps 757 mmHg 89%
    23:00 +7°C° 0.3 mm 6 mps 758 mmHg 89%

    22 February, Friday

    Time Temperature Precipitation Wind Pressure Humidity
    00:00 +7°C° 0.3 mm 6 mps 758 mmHg 90%
    01:00 +7°C° 0.3 mm 6 mps 758 mmHg 90%
    02:00 +6°C° 0.4 mm 7 mps 758 mmHg 89%
    03:00 +6°C° 0.4 mm 7 mps 759 mmHg 88%
    04:00 +6°C° 0.4 mm 7 mps 759 mmHg 87%
    05:00 +5°C° 0.2 mm 7 mps 760 mmHg 87%
    06:00 +4°C° 0.2 mm 7 mps 761 mmHg 86%
    07:00 +3°C° 0.2 mm 6 mps 762 mmHg 85%
    08:00 +2°C° 0 mm 6 mps 763 mmHg 82%
    09:00 +1°C° 0 mm 6 mps 764 mmHg 78%
    10:00 0°C° 0 mm 5 mps 765 mmHg 74%
    11:00 +1°C° 0 mm 5 mps 766 mmHg 69%
    12:00 +1°C° 0 mm 4 mps 766 mmHg 63%
    13:00 +3°C° 0 mm 4 mps 767 mmHg 58%
    14:00 +1°C° 0 mm 4 mps 767 mmHg 56%
    15:00 +1°C° 0 mm 4 mps 768 mmHg 53%
    16:00 +1°C° 0 mm 4 mps 768 mmHg 51%
    17:00 0°C° 0 mm 4 mps 769 mmHg 55%
    18:00 0°C° 0 mm 3 mps 770 mmHg 58%
    19:00 -1°C° 0 mm 2 mps 770 mmHg 62%
    20:00 -1°C° 0 mm 2 mps 771 mmHg 63%
    21:00 -1°C° 0 mm 2 mps 771 mmHg 63%
    22:00 -2°C° 0 mm 2 mps 772 mmHg 64%
    23:00 -2°C° 0 mm 2 mps 772 mmHg 63%

    23 February, Saturday

    Time Temperature Precipitation Wind Pressure Humidity
    00:00 0°C° 0 mm 1 mps 772 mmHg 62%
    01:00 0°C° 0 mm 1 mps 772 mmHg 61%
    02:00 0°C° 0 mm 1 mps 772 mmHg 60%
    03:00 0°C° 0 mm 1 mps 772 mmHg 59%
    04:00 0°C° 0 mm 1 mps 772 mmHg 58%
    05:00 0°C° 0 mm 1 mps 771 mmHg 57%
    06:00 -1°C° 0 mm 1 mps 771 mmHg 57%
    07:00 -1°C° 0 mm 1 mps 771 mmHg 57%
    08:00 -2°C° 0 mm 2 mps 771 mmHg 50%
    09:00 +1°C° 0 mm 2 mps 771 mmHg 43%
    10:00 +1°C° 0 mm 3 mps 771 mmHg 36%
    11:00 +3°C° 0 mm 2 mps 771 mmHg 33%
    12:00 +4°C° 0 mm 2 mps 770 mmHg 29%
    13:00 +6°C° 0 mm 1 mps 770 mmHg 26%
    14:00 +6°C° 0 mm 1 mps 770 mmHg 29%
    15:00 +6°C° 0 mm 1 mps 769 mmHg 32%
    16:00 +5°C° 0 mm 0 mps 769 mmHg 35%
    17:00 +4°C° 0 mm 0 mps 768 mmHg 37%
    18:00 +3°C° 0 mm 0 mps 768 mmHg 38%
    19:00 +2°C° 0 mm 0 mps 768 mmHg 39%
    20:00 +1°C° 0 mm 0 mps 768 mmHg 41%
    21:00 +2°C° 0 mm 1 mps 768 mmHg 42%
    22:00 +2°C° 0 mm 1 mps 768 mmHg 44%
    23:00 +2°C° 0 mm 1 mps 768 mmHg 45%

    24 February, Sunday

    Time Temperature Precipitation Wind Pressure Humidity
    00:00 +2°C° 0 mm 1 mps 768 mmHg 46%
    01:00 +2°C° 0 mm 1 mps 768 mmHg 47%
    02:00 +2°C° 0 mm 1 mps 768 mmHg 49%
    03:00 +1°C° 0 mm 1 mps 768 mmHg 50%
    04:00 0°C° 0 mm 0 mps 768 mmHg 52%
    05:00 0°C° 0 mm 0 mps 768 mmHg 53%
    06:00 0°C° 0 mm 0 mps 768 mmHg 54%
    07:00 0°C° 0 mm 0 mps 768 mmHg 55%
    08:00 +1°C° 0 mm 0 mps 768 mmHg 54%
    09:00 +3°C° 0 mm 0 mps 769 mmHg 52%
    10:00 +4°C° 0 mm 0 mps 769 mmHg 50%
    11:00 +5°C° 0 mm 0 mps 769 mmHg 52%
    12:00 +7°C° 0 mm 1 mps 768 mmHg 55%
    13:00 +7°C° 0 mm 1 mps 768 mmHg 57%
    14:00 +7°C° 0 mm 1 mps 768 mmHg 60%
    15:00 +7°C° 0 mm 1 mps 768 mmHg 62%
    16:00 +7°C° 0 mm 1 mps 767 mmHg 65%
    17:00 +5°C° 0 mm 0 mps 767 mmHg 70%
    18:00 +4°C° 0 mm 0 mps 767 mmHg 74%
    19:00 +3°C° 0 mm 0 mps 767 mmHg 79%
    20:00 +3°C° 0 mm 0 mps 767 mmHg 80%
    21:00 +2°C° 0 mm 0 mps 767 mmHg 81%
    22:00 +3°C° 0 mm 1 mps 767 mmHg 82%
    23:00 +3°C° 0 mm 1 mps 766 mmHg 83%
    Show more